N6YV Weather Reports


Display with metric or nautical units.
time (UTC)temp
F
wind
direction
speed
MPH
gust
MPH
rain 1hr
in
rain 24hr
in
rain mn
in
humidity
%
barometer
mb
20260510183045 77 67 2.0 0.0 0.00 0.00 0.00 21 1006.2
20260510181550 76 58 3.0 0.0 0.00 0.00 0.00 23 1006.4
20260510180037 75 44 2.0 0.0 0.00 0.00 0.00 23 1006.5
20260510174538 74 55 2.0 0.0 0.00 0.00 0.00 26 1006.6
20260510173029 72 56 3.0 0.0 0.00 0.00 0.00 26 1006.7
20260510171537 71 51 3.0 0.0 0.00 0.00 0.00 30 1006.8
20260510170023 69 33 4.0 0.0 0.00 0.00 0.00 31 1006.9
20260510164520 68 45 3.0 0.0 0.00 0.00 0.00 31 1006.9
20260510163017 67 40 2.0 0.0 0.00 0.00 0.00 33 1006.9
20260510161511 65 40 1.0 0.0 0.00 0.00 0.00 34 1007.0
20260510160012 63 40 2.0 0.0 0.00 0.00 0.00 37 1007.0
20260510154509 62 38 3.0 0.0 0.00 0.00 0.00 38 1007.1
20260510153006 61 26 4.0 0.0 0.00 0.00 0.00 37 1007.1
20260510151512 60 5 5.0 0.0 0.00 0.00 0.00 40 1007.1
20260510150006 60 32 4.0 0.0 0.00 0.00 0.00 40 1007.1
20260510144510 58 16 4.0 0.0 0.00 0.00 0.00 41 1006.9
20260510143004 57 348 2.0 0.0 0.00 0.00 0.00 43 1007.0
20260510141506 56 248 1.0 0.0 0.00 0.00 0.00 41 1006.9
20260510140002 55 247 1.0 0.0 0.00 0.00 0.00 38 1006.8
20260510134502 54 248 0.0 0.0 0.00 0.00 0.00 39 1006.6
20260510133103 52 248 0.0 0.0 0.00 0.00 0.00 38 1006.5
20260510131558 52 248 0.0 0.0 0.00 0.00 0.00 33 1006.4
20260510130057 53 248 2.0 0.0 0.00 0.00 0.00 32 1006.6
20260510124600 53 248 3.0 0.0 0.00 0.00 0.00 32 1006.6
20260510123054 52 248 1.0 0.0 0.00 0.00 0.00 32 1006.8
20260510121553 52 248 4.0 0.0 0.00 0.00 0.00 33 1006.8
20260510120052 52 248 3.0 0.0 0.00 0.00 0.00 32 1006.8
20260510114606 52 248 4.0 0.0 0.00 0.00 0.00 32 1006.9
20260510113057 52 222 3.0 0.0 0.00 0.00 0.00 33 1007.2
20260510111546 54 221 2.0 0.0 0.00 0.00 0.00 29 1007.1
20260510110053 56 221 2.0 0.0 0.00 0.00 0.00 28 1007.1
20260510104548 54 259 4.0 0.0 0.00 0.00 0.00 28 1007.0
20260510103051 55 259 0.0 0.0 0.00 0.00 0.00 28 1007.1
20260510101557 56 259 5.0 0.0 0.00 0.00 0.00 26 1007.2
20260510100050 56 254 5.0 0.0 0.00 0.00 0.00 27 1007.1
20260510094549 55 247 5.0 0.0 0.00 0.00 0.00 28 1007.1
20260510093042 55 302 6.0 0.0 0.00 0.00 0.00 30 1007.0
20260510091538 56 321 4.0 0.0 0.00 0.00 0.00 29 1007.0
20260510090038 58 321 3.0 0.0 0.00 0.00 0.00 27 1007.2
20260510084538 56 279 6.0 0.0 0.00 0.00 0.00 26 1007.0
20260510083033 57 298 1.0 0.0 0.00 0.00 0.00 26 1007.1
20260510081538 59 298 1.0 0.0 0.00 0.00 0.00 23 1007.1
20260510080043 60 184 1.0 0.0 0.00 0.00 0.00 23 1007.2
20260510074526 62 260 6.0 0.0 0.00 0.00 0.00 21 1007.1
20260510073036 62 258 6.0 0.0 0.00 0.00 0.00 21 1007.1
20260510071520 62 252 8.0 0.0 0.00 0.00 0.00 20 1007.0
20260510070018 63 238 8.0 0.0 0.00 0.00 0.00 20 1007.0
20260510064516 63 265 8.0 0.0 0.00 0.00 0.00 20 1007.0
20260510063018 63 261 8.0 0.0 0.00 0.00 0.00 20 1006.9
20260510061515 64 257 8.0 0.0 0.00 0.00 0.00 19 1006.9
20260510060031 63 258 8.0 0.0 0.00 0.00 0.00 19 1006.9
20260510054517 64 257 7.0 0.0 0.00 0.00 0.00 20 1006.9
20260510053013 64 252 7.0 0.0 0.00 0.00 0.00 19 1006.9
20260510051512 64 253 7.0 0.0 0.00 0.00 0.00 19 1006.8
20260510050012 64 250 6.0 0.0 0.00 0.00 0.00 20 1006.9
20260510044512 65 257 7.0 0.0 0.00 0.00 0.00 19 1006.7
20260510043012 65 261 7.0 0.0 0.00 0.00 0.00 19 1006.7
20260510041512 66 280 7.0 0.0 0.00 0.00 0.00 19 1006.3
20260510040012 66 267 6.0 0.0 0.00 0.00 0.00 20 1006.1
20260510034510 66 257 7.0 0.0 0.00 0.00 0.00 20 1005.8
20260510033009 66 256 5.0 0.0 0.00 0.00 0.00 22 1005.7
20260510031509 66 248 4.0 0.0 0.00 0.00 0.00 23 1005.6
20260510030008 68 234 4.0 0.0 0.00 0.00 0.00 21 1005.6
20260510024508 73 90 2.0 0.0 0.00 0.00 0.00 20 1005.5
20260510023009 76 88 0.0 0.0 0.00 0.00 0.00 12 1005.4
20260510021519 78 88 1.0 0.0 0.00 0.00 0.00 11 1005.4
20260510020006 79 107 2.0 0.0 0.00 0.00 0.00 10 1005.2
20260510014512 79 58 2.0 0.0 0.00 0.00 0.00 9 1005.2
20260510013006 80 57 3.0 0.0 0.00 0.00 0.00 9 1005.2
20260510011505 81 68 1.0 0.0 0.00 0.00 0.00 11 1005.3
20260510010013 81 67 2.0 0.0 0.00 0.00 0.00 9 1005.3
20260510004503 80 63 3.0 0.0 0.00 0.00 0.00 9 1005.4
20260510003004 81 95 2.0 0.0 0.00 0.00 0.00 10 1005.2
20260510001501 81 338 3.0 0.0 0.00 0.00 0.00 11 1005.3
20260510000100 80 335 4.0 0.0 0.00 0.00 0.00 9 1005.6
20260509234558 81 54 3.0 0.0 0.00 0.00 0.00 10 1005.8
20260509233101 81 60 3.0 0.0 0.00 0.00 0.00 10 1005.8
20260509231603 80 96 4.0 0.0 0.00 0.00 0.00 10 1005.9
20260509230058 80 98 4.0 0.0 0.00 0.00 0.00 12 1006.0
20260509224555 80 130 5.0 0.0 0.00 0.00 0.00 11 1006.1
20260509223054 81 84 3.0 0.0 0.00 0.00 0.00 12 1006.4
20260509221550 80 84 4.0 0.0 0.00 0.00 0.00 13 1006.6
20260509220050 80 360 3.0 0.0 0.00 0.00 0.00 13 1006.7
20260509214548 80 75 3.0 0.0 0.00 0.00 0.00 12 1006.8
20260509213100 79 139 3.0 0.0 0.00 0.00 0.00 13 1007.0
20260509211540 78 257 4.0 0.0 0.00 0.00 0.00 13 1007.3
20260509210045 78 140 6.0 0.0 0.00 0.00 0.00 15 1007.3
20260509204538 77 85 3.0 0.0 0.00 0.00 0.00 16 1007.6
20260509203036 77 32 3.0 0.0 0.00 0.00 0.00 17 1007.9
20260509201537 76 102 3.0 0.0 0.00 0.00 0.00 17 1007.9
20260509200033 77 114 4.0 0.0 0.00 0.00 0.00 17 1008.2
20260509194543 76 28 4.0 0.0 0.00 0.00 0.00 17 1008.5
20260509193026 75 48 3.0 0.0 0.00 0.00 0.00 20 1008.6
20260509191522 74 204 3.0 0.0 0.00 0.00 0.00 19 1008.6
20260509190025 73 51 3.0 0.0 0.00 0.00 0.00 24 1008.8
20260509184519 72 26 3.0 0.0 0.00 0.00 0.00 24 1009.1